Location: Asheville, NC
(35.6000°N, 82.5500°W)
Time: 11:57:46
(UTC-04:00)

XW-2F - Pass Details

Date: 12 March 2018
Orbit: 505 x 527 km, 97.5° (Epoch: 21 June)

Event Time Altitude Azimuth Distance (km) Brightness Sun altitude
Rises 06:35:35 0° 35° (NE) 2,653 ? -15.0°
Reaches altitude 10° 06:38:36 10° 61° (ENE) 1,763 ? -14.4°
Maximum altitude 06:40:36 14° 93° (E) 1,531 ? -13.9°
Drops below altitude 10° 06:42:37 10° 126° (SE) 1,761 ? -13.5°
Sets 06:45:36 0° 152° (SSE) 2,646 ? -12.9°
